When you browse on this site, cookies collect data to enhance your experience and personalize the content and advertising you see.
Visit our Privacy Policy to learn more. By continuing to use the site, you agree to this use of cookies and data.
  • în România
  • Lista ţărilor
  • Pe 7 zile
  • Temperatura apei
  • Meteo pe hartă
  • Widget-uri
  • user-avatar
    Intrare

    Meteo pe oră la Dyakonovo

    Astăzi, 18 Septembrie, Miercuri

    Timp Temperatura Precipitaţii Vânt Presiune Umiditate
    00:00 +5°C° 0 mm 4 m/s 735 mmHg 88%
    01:00 +5°C° 0 mm 4 m/s 735 mmHg 89%
    02:00 +5°C° 0 mm 4 m/s 735 mmHg 90%
    03:00 +5°C° 0 mm 4 m/s 735 mmHg 92%
    04:00 +4°C° 0 mm 3 m/s 734 mmHg 92%
    05:00 +4°C° 0 mm 3 m/s 734 mmHg 92%
    06:00 +4°C° 0 mm 3 m/s 734 mmHg 92%
    07:00 +5°C° 0 mm 3 m/s 734 mmHg 86%
    08:00 +8°C° 0 mm 3 m/s 734 mmHg 80%
    09:00 +9°C° 0 mm 3 m/s 734 mmHg 75%
    10:00 +9°C° 0.5 mm 3 m/s 733 mmHg 79%
    11:00 +9°C° 0.5 mm 3 m/s 733 mmHg 83%
    12:00 +8°C° 0.5 mm 2 m/s 732 mmHg 87%
    13:00 +8°C° 0.8 mm 2 m/s 732 mmHg 88%
    14:00 +8°C° 0.8 mm 2 m/s 732 mmHg 88%
    15:00 +10°C° 0.8 mm 1 m/s 731 mmHg 89%
    16:00 +8°C° 0.1 mm 2 m/s 731 mmHg 89%
    17:00 +8°C° 0.1 mm 2 m/s 731 mmHg 90%
    18:00 +8°C° 0.1 mm 2 m/s 730 mmHg 90%
    19:00 +8°C° 0.1 mm 3 m/s 731 mmHg 91%
    20:00 +8°C° 0.1 mm 3 m/s 731 mmHg 92%
    21:00 +6°C° 0.1 mm 4 m/s 731 mmHg 92%
    22:00 +6°C° 0 mm 4 m/s 732 mmHg 92%
    23:00 +5°C° 0 mm 4 m/s 732 mmHg 92%

    Mâine, 19 Septembrie, Joi

    Timp Temperatura Precipitaţii Vânt Presiune Umiditate
    00:00 +5°C° 0 mm 4 m/s 733 mmHg 92%
    01:00 +5°C° 0 mm 4 m/s 734 mmHg 93%
    02:00 +4°C° 0 mm 4 m/s 734 mmHg 94%
    03:00 +4°C° 0 mm 4 m/s 735 mmHg 95%
    04:00 +4°C° 0 mm 4 m/s 736 mmHg 95%
    05:00 +4°C° 0 mm 4 m/s 736 mmHg 96%
    06:00 +2°C° 0 mm 5 m/s 737 mmHg 96%
    07:00 +3°C° 0 mm 5 m/s 738 mmHg 95%
    08:00 +5°C° 0 mm 5 m/s 738 mmHg 94%
    09:00 +5°C° 0 mm 5 m/s 739 mmHg 93%
    10:00 +6°C° 0 mm 5 m/s 740 mmHg 91%
    11:00 +6°C° 0 mm 4 m/s 740 mmHg 88%
    12:00 +7°C° 0 mm 4 m/s 741 mmHg 86%
    13:00 +8°C° 0.2 mm 4 m/s 741 mmHg 82%
    14:00 +8°C° 0.2 mm 4 m/s 741 mmHg 79%
    15:00 +9°C° 0.2 mm 5 m/s 742 mmHg 75%
    16:00 +8°C° 0.2 mm 4 m/s 742 mmHg 78%
    17:00 +8°C° 0.2 mm 4 m/s 742 mmHg 80%
    18:00 +8°C° 0.2 mm 3 m/s 742 mmHg 83%
    19:00 +7°C° 0.1 mm 3 m/s 743 mmHg 86%
    20:00 +5°C° 0.1 mm 3 m/s 743 mmHg 89%
    21:00 +5°C° 0.1 mm 3 m/s 744 mmHg 92%
    22:00 +5°C° 0.1 mm 3 m/s 744 mmHg 92%
    23:00 +6°C° 0.1 mm 2 m/s 744 mmHg 91%

    Poimâine, 20 Septembrie, Vineri

    Timp Temperatura Precipitaţii Vânt Presiune Umiditate
    00:00 +6°C° 0.1 mm 2 m/s 744 mmHg 91%
    01:00 +5°C° 0.1 mm 2 m/s 744 mmHg 92%
    02:00 +4°C° 0.1 mm 2 m/s 744 mmHg 93%
    03:00 +4°C° 0.1 mm 2 m/s 744 mmHg 93%
    04:00 +4°C° 0 mm 2 m/s 744 mmHg 93%
    05:00 +4°C° 0 mm 1 m/s 744 mmHg 93%
    06:00 +4°C° 0 mm 1 m/s 744 mmHg 93%
    07:00 +5°C° 0 mm 1 m/s 744 mmHg 88%
    08:00 +6°C° 0 mm 1 m/s 744 mmHg 83%
    09:00 +7°C° 0 mm 1 m/s 744 mmHg 78%
    10:00 +7°C° 0 mm 1 m/s 744 mmHg 71%
    11:00 +8°C° 0 mm 1 m/s 745 mmHg 65%
    12:00 +9°C° 0 mm 1 m/s 745 mmHg 58%
    13:00 +9°C° 0 mm 1 m/s 745 mmHg 56%
    14:00 +10°C° 0 mm 1 m/s 744 mmHg 54%
    15:00 +10°C° 0 mm 1 m/s 744 mmHg 52%
    16:00 +9°C° 0 mm 1 m/s 744 mmHg 56%
    17:00 +8°C° 0 mm 1 m/s 744 mmHg 60%
    18:00 +8°C° 0 mm 1 m/s 744 mmHg 64%
    19:00 +7°C° 0 mm 1 m/s 745 mmHg 65%
    20:00 +7°C° 0 mm 1 m/s 745 mmHg 66%
    21:00 +6°C° 0 mm 1 m/s 745 mmHg 67%
    22:00 +6°C° 0 mm 1 m/s 745 mmHg 68%
    23:00 +6°C° 0 mm 1 m/s 746 mmHg 69%

    21 Septembrie, Sâmbătă

    Timp Temperatura Precipitaţii Vânt Presiune Umiditate
    00:00 +5°C° 0 mm 1 m/s 746 mmHg 71%
    01:00 +5°C° 0 mm 1 m/s 746 mmHg 74%
    02:00 +4°C° 0 mm 2 m/s 746 mmHg 77%
    03:00 +3°C° 0 mm 2 m/s 746 mmHg 80%
    04:00 +3°C° 0 mm 2 m/s 746 mmHg 81%
    05:00 +3°C° 0 mm 2 m/s 746 mmHg 81%
    06:00 +3°C° 0 mm 2 m/s 747 mmHg 82%
    07:00 +3°C° 0 mm 2 m/s 747 mmHg 80%
    08:00 +3°C° 0 mm 3 m/s 747 mmHg 78%
    09:00 +4°C° 0 mm 3 m/s 748 mmHg 75%
    10:00 +5°C° 0 mm 3 m/s 748 mmHg 69%
    11:00 +8°C° 0 mm 3 m/s 748 mmHg 62%
    12:00 +9°C° 0 mm 3 m/s 748 mmHg 56%
    13:00 +9°C° 0 mm 3 m/s 748 mmHg 54%
    14:00 +9°C° 0 mm 3 m/s 748 mmHg 53%
    15:00 +9°C° 0 mm 3 m/s 747 mmHg 52%
    16:00 +8°C° 0 mm 2 m/s 747 mmHg 56%
    17:00 +7°C° 0 mm 2 m/s 747 mmHg 61%
    18:00 +8°C° 0 mm 1 m/s 747 mmHg 65%
    19:00 +6°C° 0 mm 2 m/s 747 mmHg 69%
    20:00 +5°C° 0 mm 2 m/s 747 mmHg 73%
    21:00 +4°C° 0 mm 3 m/s 747 mmHg 78%
    22:00 +3°C° 0 mm 3 m/s 746 mmHg 78%
    23:00 +3°C° 0 mm 3 m/s 746 mmHg 78%

    22 Septembrie, Duminică

    Timp Temperatura Precipitaţii Vânt Presiune Umiditate
    00:00 +3°C° 0 mm 4 m/s 745 mmHg 78%
    01:00 +2°C° 0.1 mm 5 m/s 744 mmHg 80%
    02:00 +2°C° 0.1 mm 6 m/s 743 mmHg 82%
    03:00 +2°C° 0.1 mm 7 m/s 742 mmHg 83%
    04:00 +3°C° 0.4 mm 7 m/s 741 mmHg 86%
    05:00 +2°C° 0.4 mm 8 m/s 740 mmHg 89%
    06:00 +2°C° 0.4 mm 9 m/s 739 mmHg 91%
    07:00 +5°C° 0.9 mm 8 m/s 738 mmHg 91%
    08:00 +6°C° 0.9 mm 8 m/s 737 mmHg 91%
    09:00 +9°C° 0.9 mm 8 m/s 736 mmHg 91%
    10:00 +8°C° 0.3 mm 9 m/s 736 mmHg 83%
    11:00 +9°C° 0.3 mm 10 m/s 736 mmHg 76%
    12:00 +9°C° 0.3 mm 10 m/s 736 mmHg 68%
    13:00 +9°C° 0 mm 11 m/s 737 mmHg 60%
    14:00 +9°C° 0 mm 11 m/s 737 mmHg 52%
    15:00 +8°C° 0 mm 11 m/s 737 mmHg 44%
    16:00 +7°C° 0 mm 10 m/s 738 mmHg 48%
    17:00 +6°C° 0 mm 9 m/s 738 mmHg 51%
    18:00 +5°C° 0 mm 8 m/s 739 mmHg 54%
    19:00 +5°C° 0 mm 8 m/s 739 mmHg 56%
    20:00 +4°C° 0 mm 8 m/s 740 mmHg 57%
    21:00 +2°C° 0 mm 8 m/s 740 mmHg 58%
    22:00 +2°C° 0 mm 8 m/s 740 mmHg 61%
    23:00 +1°C° 0 mm 8 m/s 741 mmHg 65%

    23 Septembrie, Luni

    Timp Temperatura Precipitaţii Vânt Presiune Umiditate
    00:00 +1°C° 0 mm 8 m/s 741 mmHg 68%
    01:00 0°C° 0 mm 7 m/s 742 mmHg 70%
    02:00 0°C° 0 mm 7 m/s 742 mmHg 73%
    03:00 0°C° 0 mm 7 m/s 743 mmHg 76%
    04:00 -1°C° 0 mm 6 m/s 743 mmHg 78%
    05:00 -1°C° 0 mm 6 m/s 744 mmHg 79%
    06:00 -1°C° 0 mm 6 m/s 744 mmHg 81%
    07:00 +1°C° 0 mm 6 m/s 745 mmHg 79%
    08:00 +1°C° 0 mm 5 m/s 745 mmHg 76%
    09:00 +2°C° 0 mm 5 m/s 746 mmHg 74%
    10:00 +3°C° 0 mm 5 m/s 746 mmHg 70%
    11:00 +5°C° 0 mm 4 m/s 746 mmHg 65%
    12:00 +7°C° 0 mm 4 m/s 746 mmHg 61%
    13:00 +8°C° 0 mm 3 m/s 746 mmHg 59%
    14:00 +8°C° 0 mm 3 m/s 746 mmHg 57%
    15:00 +9°C° 0 mm 3 m/s 745 mmHg 55%
    16:00 +8°C° 0 mm 2 m/s 745 mmHg 58%
    17:00 +7°C° 0 mm 2 m/s 745 mmHg 61%
    18:00 +8°C° 0 mm 1 m/s 745 mmHg 64%
    19:00 +7°C° 0.3 mm 1 m/s 745 mmHg 72%
    20:00 +5°C° 0.3 mm 2 m/s 745 mmHg 80%
    21:00 +4°C° 0.3 mm 2 m/s 745 mmHg 88%
    22:00 +5°C° 0.3 mm 1 m/s 745 mmHg 90%
    23:00 +5°C° 0.3 mm 1 m/s 745 mmHg 92%
    Arată mai mult